Tracking 35274 objects as of 11-Sep-2026
HD Live streaming from Space Station
objects crossing your sky now

SL-12 R/B(AUX MOTOR)


SL-12 R/B(AUX MOTOR) is no longer on orbit


NORAD ID: 20711
Int'l Code: 1990-054F
Launch date: June 20, 1990
Source: Commonwealth of Independent States (former USSR) (CIS)
Launch site: TYURATAM MISSILE AND SPACE COMPLEX (TTMTR)
Decay date: 1991-04-16

Note: This is a ROCKET BODY
Your satellite tracking list
Your tracking list is empty




NASA's NSSDC Master Catalog

Two Line Element Set (TLE):
1 20711U 90054  F 90352.03505942  .00064052 -48600-4 +26759-3 0  9998
2 20711 046.6558 219.9856 7213494 050.2640 355.3176 02.42620532003519
Source of the keplerian elements: AFSPC